sat.trackr.live / text

‹ back to catalog

STARLINK-5496

NORAD 56886 · 2023-083L

PAYLOAD ACTIVE UNKNOWN

§ Identity

Operator
Country
US
Launch date
2023-06-12
Launch site
AFETR
Launch vehicle
Mass (kg)
RCS (m²)

Purposes: comms

External: N2YO · Heavens-Above · Gunter

§ Orbital elements

Epoch: 2026-05-24T23:48:33.780960Z

Period
94.27 min
Inclination
43.0042°
Eccentricity
0.0001181
Mean motion
15.27582365 rev/d
Perigee alt
482.2 km
Apogee alt
483.9 km
Semi-major
6,861.2 km
B*
-4.5251e-5
RAAN
13.9529°
Arg perigee
263.8122°
Mean anomaly
96.2596°
Rev number
16,330

§ Raw data

STARLINK-54961 56886U 23083L   26144.99205765 -.00001507  00000+0 -45251-4 0  99942 56886  43.0042  13.9529 0001181 263.8122  96.2596 15.27582365163306

JSON: /api/v1/satellites/56886 · /tle

For live sub-satellite position, see the globe view (requires WebGL).

§ Visibility from observer

Set your observer location to see the next 7 days of passes ≥ 10°. The values pass through the URL so the page stays shareable.

No JS? Fill the form by hand. The geolocation button needs JavaScript.